C/2021 G3 ( PanSTARRS )

Japanese version
Home page
Updated on July 16, 2022

---------------------------------------------------------------------

* Profile

Discovery Date April 1, 2021
Magnitude 22.1 mag
Discoverer Pan-STARRS 1 telescope (Haleakala)

* Orbital Elements

Epoch 2022 Aug. 9.0 TT = JDT 2459800.5
T 2021 Oct. 18.40848 TT                                 Rudenko
q   5.1808168            (2000.0)            P               Q
z  -0.0001523      Peri.   10.62532     -0.80602114     +0.27335672
 +/-0.0000368      Node   147.41614     +0.44590034     -0.30284257
e   1.0007891      Incl.  102.88071     +0.38923361     +0.91299643
From 19 observations 2022 Jan. 4-June 1, mean residual 0".3.

* Magnitudes Graph

        m1 = 11.0 + 5 log d + 10.0 log r

---------------------------------------------------------------------

The orbital elements are published on M.P.E.C. 2022-M21.
The magnitudes graphs are made with Comet for Windows.

---------------------------------------------------------------------

Copyright(C) Seiichi Yoshida (comet@aerith.net). All rights reserved.